Location: Phone Location
(34.1440°N, 118.1100°W)
Time: 19:53:49
(UTC-08:00)

ISS - Visible Passes

Search period start: 21 February 2019 00:00
Search period end: 03 March 2019 00:00
Orbit: 403 x 411 km, 51.6° (Epoch: 22 February)

Date Brightness Start Highest point End Pass type
(mag) Time Alt. Az. Time Alt. Az. Time Alt. Az.
21 Feb -0.9 05:19:45 10° S 05:22:00 17° SE 05:24:15 10° E visible
23 Feb -3.1 05:13:15 18° SSW 05:15:26 52° SE 05:18:37 10° ENE visible
24 Feb -1.5 04:24:41 23° ESE 04:24:41 23° ESE 04:26:48 10° ENE visible
24 Feb -2.6 05:57:46 10° W 06:00:32 25° NW 06:03:20 10° NNE visible
25 Feb -3.6 05:08:38 45° WNW 05:08:59 48° NW 05:12:10 10° NE visible
26 Feb -1.3 04:19:38 20° NE 04:19:38 20° NE 04:20:46 10° NE visible
26 Feb -1.6 05:52:50 10° WNW 05:54:22 13° NNW 05:55:55 10° N visible
27 Feb -2.0 05:03:12 19° NNW 05:03:12 19° NNW 05:05:10 10° NNE visible
28 Feb -0.7 04:13:55 11° NNE 04:13:55 11° NNE 04:14:04 10° NNE visible
